KD5HIA Weather Reports


Display with metric or nautical units.
time (UTC)temp
F
wind
direction
speed
MPH
gust
MPH
rain 1hr
in
rain 24hr
in
rain mn
in
humidity
%
barometer
mb
20260504012017 71 180 4.0 6.0 0.00 0.00 0.00 48 1015.2
20260504011017 72 180 4.0 7.0 0.00 0.00 0.00 47 1015.2
20260504010017 73 180 5.0 10.0 0.00 0.00 0.00 45 1015.2
20260504005017 73 180 6.0 11.0 0.00 0.00 0.00 43 1015.4
20260504004017 74 180 6.0 10.0 0.00 0.00 0.00 42 1015.4
20260504003017 74 158 7.0 11.0 0.00 0.00 0.00 41 1015.5
20260504002017 75 180 7.0 11.0 0.00 0.00 0.00 40 1015.7
20260504001017 75 180 6.0 10.0 0.00 0.00 0.00 40 1015.6
20260504000017 75 180 8.0 11.0 0.00 0.00 0.00 39 1015.7
20260503235017 75 180 7.0 14.0 0.00 0.00 0.00 38 1015.7
20260503234017 76 180 9.0 16.0 0.00 0.00 0.00 38 1015.7
20260503233017 76 180 8.0 15.0 0.00 0.00 0.00 38 1015.7
20260503232017 77 180 7.0 17.0 0.00 0.00 0.00 38 1015.9
20260503231017 77 203 8.0 16.0 0.00 0.00 0.00 37 1015.9
20260503230017 76 158 9.0 16.0 0.00 0.00 0.00 38 1016.1
20260503225017 78 180 9.0 17.0 0.00 0.00 0.00 38 1016.2
20260503224017 76 180 9.0 13.0 0.00 0.00 0.00 39 1016.4
20260503223017 76 180 9.0 16.0 0.00 0.00 0.00 39 1016.6
20260503222017 76 180 8.0 13.0 0.00 0.00 0.00 37 1016.6
20260503221017 77 203 9.0 14.0 0.00 0.00 0.00 37 1016.9
20260503220017 77 180 8.0 16.0 0.00 0.00 0.00 37 1016.7
20260503215017 77 203 9.0 16.0 0.00 0.00 0.00 37 1016.7
20260503214017 77 203 8.0 14.0 0.00 0.00 0.00 37 1017.0
20260503213017 78 158 8.0 14.0 0.00 0.00 0.00 36 1016.9
20260503212017 78 203 7.0 14.0 0.00 0.00 0.00 36 1017.3
20260503211017 79 225 6.0 13.0 0.00 0.00 0.00 36 1017.6
20260503210017 78 180 8.0 17.0 0.00 0.00 0.00 36 1017.9
20260503205017 78 158 9.0 14.0 0.00 0.00 0.00 36 1017.9
20260503204017 78 203 6.0 13.0 0.00 0.00 0.00 36 1018.2
20260503203017 78 158 11.0 18.0 0.00 0.00 0.00 36 1018.2
20260503202017 78 158 11.0 19.0 0.00 0.00 0.00 38 1018.6
20260503201017 77 203 8.0 17.0 0.00 0.00 0.00 38 1018.8
20260503200017 77 158 8.0 20.0 0.00 0.00 0.00 38 1018.9
20260503195017 78 158 10.0 18.0 0.00 0.00 0.00 38 1019.2
20260503194017 76 180 9.0 15.0 0.00 0.00 0.00 40 1019.2
20260503193017 77 158 10.0 16.0 0.00 0.00 0.00 37 1019.7
20260503192017 77 135 8.0 14.0 0.00 0.00 0.00 39 1019.9
20260503191017 77 158 8.0 13.0 0.00 0.00 0.00 40 1020.1
20260503190017 76 180 8.0 16.0 0.00 0.00 0.00 38 1020.2
20260503185017 76 180 11.0 18.0 0.00 0.00 0.00 38 1020.4
20260503184017 76 180 7.0 12.0 0.00 0.00 0.00 39 1020.5
20260503183017 76 158 9.0 17.0 0.00 0.00 0.00 38 1020.8
20260503182017 76 203 10.0 16.0 0.00 0.00 0.00 41 1021.0
20260503181017 76 135 10.0 18.0 0.00 0.00 0.00 42 1021.1
20260503180017 75 203 7.0 13.0 0.00 0.00 0.00 40 1021.4
20260503175017 75 203 7.0 13.0 0.00 0.00 0.00 40 1021.5
20260503174017 74 203 6.0 11.0 0.00 0.00 0.00 43 1021.6
20260503173017 75 158 8.0 16.0 0.00 0.00 0.00 41 1022.0
20260503172017 74 180 10.0 18.0 0.00 0.00 0.00 44 1022.2
20260503171017 74 203 7.0 17.0 0.00 0.00 0.00 44 1022.2
20260503131017 55 203 2.0 4.0 0.00 0.00 0.00 77 1022.7
20260503081017 53 0.0 1.0 0.00 0.00 0.00 81 1021.8
20260503072017 53 0.0 0.0 0.00 0.00 0.00 82 1021.9
20260503071017 54 203 2.0 3.0 0.00 0.00 0.00 82 1021.7
20260503055017 55 203 5.0 7.0 0.00 0.00 0.00 82 1022.3
20260503054017 55 203 3.0 5.0 0.00 0.00 0.00 82 1021.9
20260503053017 55 225 2.0 4.0 0.00 0.00 0.00 82 1022.1
20260503052017 56 203 4.0 5.0 0.00 0.00 0.00 81 1022.0
20260503051017 56 203 4.0 6.0 0.00 0.00 0.00 82 1022.2
20260503050017 56 203 5.0 6.0 0.00 0.00 0.00 81 1022.2
20260503045017 56 203 5.0 6.0 0.00 0.00 0.00 81 1022.3
20260503044017 56 203 4.0 5.0 0.00 0.00 0.00 81 1022.0
20260503043017 57 180 3.0 5.0 0.00 0.00 0.00 81 1022.0
20260503042017 57 180 3.0 6.0 0.00 0.00 0.00 80 1022.3
20260503041017 58 203 5.0 6.0 0.00 0.00 0.00 78 1022.3
20260503040017 58 180 2.0 4.0 0.00 0.00 0.00 76 1022.3
20260503035017 59 180 2.0 4.0 0.00 0.00 0.00 76 1022.2
20260503034017 59 203 4.0 6.0 0.00 0.00 0.00 74 1022.0
20260503033018 59 180 3.0 5.0 0.00 0.00 0.00 75 1021.8
20260503032017 60 180 1.0 3.0 0.00 0.00 0.00 73 1021.8
20260503031021 62 158 3.0 4.0 0.00 0.00 0.00 67 1021.6
20260503030021 62 135 2.0 3.0 0.00 0.00 0.00 65 1021.5
20260503025021 63 0.0 0.0 0.00 0.00 0.00 70 1021.6
20260503024017 63 0.0 0.0 0.00 0.00 0.00 68 1021.6
20260503023017 64 0.0 0.0 0.00 0.00 0.00 66 1021.5
20260503022017 64 0.0 0.0 0.00 0.00 0.00 69 1021.5
20260503021017 64 0.0 0.0 0.00 0.00 0.00 69 1021.3
20260503020017 65 0.0 0.0 0.00 0.00 0.00 65 1021.3
20260503015017 64 0.0 0.0 0.00 0.00 0.00 66 1021.2
20260503014017 65 0.0 0.0 0.00 0.00 0.00 64 1021.0
20260503013017 66 0.0 1.0 0.00 0.00 0.00 57 1021.1